Pagrindinis puslapis
METAR-TAF:

METAR-TAF

Oro uostai :

Rio Kuartas, Argentina

platuma: 33-07S, ilguma: 064-14W, Aukštis: 420 m

Dabartinis oras

Ataskaita buvo paskelbta 1 valandą ir 4 minutes, ne 22:00 UTC
Vėjas 6 kt iš Pietryčių
Temperatūra 20°C
Drėgmė 40%
Slėgis 1025 hPa
Matomumas 10 km arba daugiau
nėra debesų žemiau 1500 m ir nėra kamuolinių lietaus debesų

METAR: SAOC 212200Z 14006KT CAVOK 20/06 Q1025

Laikas: 20:04 (23:04 UTC)


TAF: trūkstamas

Orai ataskaitas ir orų prognozės (METAR, TAF).

turimą stotys yra geltonos ir raudonos taškus žemėlapyje.

Perkelti pele per norėdami pamatyti stoties vardą.

Tada spustelėkite, norėdami matyti oro stebėjimo ir prognozės.

Norėdami pakeisti žemėlapį: spustelėkite ant žalios mygtukų su juodo kryžiaus žemyn,; žalią mygtuką su brūkšneliu, jei norite nutolinti; arba žalių rodyklių gretimoms žemėlapius.


METAR-TAF: